Regional Weather Roundup
Issued by NWS

Home | Current Version | Previous Version | Graphics & Text | Print | Product List | Glossary On
Versions: 1 2 3 4 5 6 7 8 9 10 11 12 13 14 15 16 17 18 19 20 21 22 23 24 25 26 27 28 29 30 31 32 33 34 35 36 37 38 39 40 41 42 43 44 45 46 47 48 49 50
000
ASUS43 KDMX 090003
RWRIA

WEATHER ROUNDUP FOR IOWA
NATIONAL WEATHER SERVICE DES MOINES IA
600 PM CST MON FEB 08 2016

NOTE: "FAIR" INDICATES FEW OR NO CLOUDS BELOW 12,000 FEET WITH NO
SIGNIFICANT WEATHER AND/OR OBSTRUCTIONS TO VISIBILITY.

* - THESE STATIONS ARE NOT NWS STATIONS...THUS NOT UNDER NWS
QUALITY CONTROL.  THEY ALSO DO NOT REPORT WEATHER SUCH
AS PRECIPITATION OR FOG.

IAZ001>003-012>014-020>022-031>034-043>046-090100-
   NORTHWEST IOWA

CITY           SKY/WX    TMP DP  RH WIND       PRES   REMARKS
CARROLL *      MOCLDY    18  12  79 NW25G32   30.04F WCI  -1
CHEROKEE *     PTCLDY    18  14  86 N14       30.08S WCI   4
DENISON *      PTCLDY    19  16  86 N17G24    30.05S WCI   4
LE MARS *      CLEAR     25  18  74 N9        30.12S WCI  15
ORANGE CITY *  CLEAR     21  18  86 N14G20    30.08R WCI   8
SHELDON *      MOCLDY    16  12  86 N17       30.07R WCI   0
SIOUX CITY     PTCLDY    28  18  66 N17       30.10S WCI  16
6HR MIN TEMP:  26; 6HR MAX TEMP:  30; 6HR PCP: TRACE;

SPENCER        LGT SNOW  16  10  77 NW24G33   30.05F WCI  -2
6HR MIN TEMP:  15; 6HR MAX TEMP:  18; 6HR PCP: TRACE;

STORM LAKE *   CLOUDY    18  12  79 N20G28    30.04S WCI   1
$$

IAZ055>058-069>071-079>083-090>094-090100-
   SOUTHWEST IOWA

CITY           SKY/WX    TMP DP  RH WIND       PRES   REMARKS
ATLANTIC *     MOCLDY    21  16  79 N13       30.08S WCI   9
AUDUBON *      PTCLDY    19  12  73 N13G22    30.06R WCI   7
CLARINDA *     MOCLDY    25  19  80 N12       30.11S WCI  14
COUNCIL BLFS * CLEAR     27  18  69 N20G30    30.07S WCI  13
CRESTON *      FLURRIES  21  14  73 NW26G35   30.04S WCI   4
HARLAN  *      PTCLDY    23  18  80 N18G24    30.10S WCI   9
LAMONI         CLOUDY    21  11  65 NW17G29   30.04R WCI   7
6HR MIN TEMP:  20; 6HR MAX TEMP:  23; 6HR PCP: TRACE;

RED OAK *      PTCLDY    27  18  69 N15G23    30.09S WCI  15
SHENANDOAH *   PTCLDY    27  19  74 N13       30.12R WCI  16
$$

IAZ047>049-059>061-072>074-084-090100-
   CENTRAL IOWA

CITY           SKY/WX    TMP DP  RH WIND       PRES   REMARKS
AMES           FLURRIES  18  11  74 NW22G28   30.01S WCI   1
6HR MIN TEMP:  16; 6HR MAX TEMP:  19; 6HR PCP: TRACE;

ANKENY *       CLOUDY    19  10  68 NW18G30   30.02F WCI   4
BOONE *        FLURRIES  18  10  73 NW30G39   29.99S WCI  -2
CHARITON *     LGT SNOW  18  10  73 NW24G32   30.02R WCI   0
DES MOINES     FLURRIES  20   9  62 N21G31    30.02F WCI   4
6HR MIN TEMP:  18; 6HR MAX TEMP:  20; 6HR PCP: TRACE;

GRINNELL*      LGT SNOW  16  12  86 NW22G37   29.97S WCI  -2
KNOXVILLE *    LGT SNOW  18  12  79 NW24G31   30.00R WCI   0
MARSHALLTOWN   LGT SNOW  16  11  80 NW23      29.97S WCI  -2
6HR MIN TEMP:  15; 6HR MAX TEMP:  17; 6HR PCP: TRACE;

NEWTON *       SNOW      16  14  93 NW21G32   29.99S VSB 1/2 WCI  -2
PELLA *        LGT SNOW  18  12  79 NW20G28   30.02R WCI   1
$$

IAZ004>006-015-016-023>025-035-036-090100-
   NORTH CENTRAL IOWA

CITY           SKY/WX    TMP DP  RH WIND       PRES   REMARKS
ALGONA *       CLOUDY    18  12  79 NW28G38   29.99S WCI  -1
CLARION *      LGT SNOW  16  10  79 NW31      29.98R WCI  -5
ESTHERVILLE    LGT SNOW  14  10  84 NW20G31   30.03R FOG     WCI  -3
6HR MIN TEMP:  13; 6HR MAX TEMP:  16; 6HR PCP: TRACE;

FORT DODGE *   CLOUDY    18   7  62 NW14G23   30.02S WCI   4
MASON CITY     LGT SNOW  15  11  83 NW23      29.95S FOG     WCI  -3
6HR MIN TEMP:  13; 6HR MAX TEMP:  16; 6HR PCP: TRACE;

FOREST CITY *  LGT SNOW  16  10  79 NW23G35   29.95S WCI  -2
WEBSTER CITY * SNOW      16  14  93 NW30G37   29.98F VSB 1/2 WCI  -4
IOWA FALLS *   CLOUDY    16  13  87 NW22G33   29.97S WCI  -1
$$

IAZ007>011-017>019-026>030-037>042-050>054-066-090100-
   NORTHEAST IOWA

CITY           SKY/WX    TMP DP  RH WIND       PRES   REMARKS
CEDAR RAPIDS   FLURRIES  16   9  74 NW24G33   29.91R WCI  -2
6HR MIN TEMP:  15; 6HR MAX TEMP:  18; 6HR PCP: TRACE;

CHARLES CITY * LGT SNOW  14  14 100 NW20      29.92S VSB 3/4 WCI  -3
CLINTON *      CLOUDY    19  14  81 NW23      29.85R WCI   2
DECORAH *      LGT SNOW  14   7  73 N18G25    29.87R WCI  -3
DUBUQUE        CLOUDY    16   8  71 NW20G29   29.83S WCI  -1
6HR MIN TEMP:  16; 6HR MAX TEMP:  20;

MONTICELLO *   FLURRIES  16  10  79 NW16      29.88S WCI   0
OELWEIN *      LGT SNOW  14   9  79 NW22G28   29.90S WCI  -4
WATERLOO       LGT SNOW  15   9  76 NW20G28   29.93R WCI  -2
6HR MIN TEMP:  15; 6HR MAX TEMP:  15; 6HR PCP: TRACE;

$$

IAZ064-065-067-068-078-090100-
   EAST CENTRAL IOWA

CITY           SKY/WX    TMP DP  RH WIND       PRES   REMARKS
DAVENPORT      CLOUDY    18   9  68 NW23G32   29.88R WCI   0
6HR MIN TEMP:  18; 6HR MAX TEMP:  21; 6HR PCP: TRACE;

IOWA CITY      FLURRIES  17   9  70 NW17G24   29.95R WCI   1
6HR MIN TEMP:  17; 6HR MAX TEMP:  19; 6HR PCP: TRACE;

MT. PLEASANT * FLURRIES  21  12  68 NW17G26   29.95S WCI   7
MUSCATINE *    MOCLDY    19  10  68 NW21G28   29.94R WCI   3
QUAD CITIES    CLOUDY    19  10  68 NW21G31   29.88R WCI   3
6HR MIN TEMP:  19; 6HR MAX TEMP:  22; 6HR PCP: TRACE;

$$

IAZ062-063-075>077-085>089-095>099-090100-
   SOUTHEAST IOWA

CITY           SKY/WX    TMP DP  RH WIND       PRES   REMARKS
BURLINGTON     CLOUDY    18  10  71 NW15G35   29.92S WCI   4
6HR MIN TEMP:  18; 6HR MAX TEMP:  20; 6HR PCP: TRACE;

FAIRFIELD *    LGT SNOW  18  10  73 NW20G29   29.96R WCI   1
FORT MADISON * FLURRIES  18  12  79 NW23G30   29.93F WCI   0
KEOKUK *       CLOUDY    19  10  68 NW14G29   29.95S WCI   6
OSKALOOSA *    CLOUDY    18  12  79 NW24G32   29.99R WCI   0
OTTUMWA        CLOUDY    18  11  74 NW26G33   29.98S WCI  -1
6HR MIN TEMP:  18; 6HR MAX TEMP:  18; 6HR PCP: TRACE;

WASHINGTON *   CLOUDY    18  10  73 NW24G31   29.96R WCI   0
$$

ABBREVIATIONS USED IN REMARKS
   TC - TEMPERATURES IN CELSIUS
  WCI - WIND CHILL INDEX
   HX - HEAT INDEX
  VSB - VISIBILITY
$$




USA.gov is the U.S. government's official web portal to all federal, state and local government web resources and services.